Theta_e
317 316 315 315 315 315 315 315 315 314 314 314 314 313 313 312 312 312 312 312 312 312 313 312 312 312 312 312 312 311 311 312 311 311 311 311 312 312 312 312 312 313 313 312 311 311 310 311 310 310 310 310 310 312 312 312 313 313 313 314 315 315 315 316 317 317 316 314 314 314 313 314 314 314 314 312 311 311 311 310 309 309 308 308 308
317 315 315 315 315 315 315 315 314 314 314 314 314 313 313 313 312 312 312 312 312 312 312 312 311 311 311 310 311 310 310 310 310 310 311 310 311 312 311 311 311 312 312 312 311 311 310 311 310 309 310 310 310 311 312 312 312 312 313 313 315 315 314 315 316 317 316 314 314 314 314 314 314 314 314 313 312 312 311 311 310 309 309 308 308
316 316 315 315 315 315 315 315 314 314 314 313 313 313 313 313 312 312 312 311 311 311 311 310 310 310 310 310 310 309 308 309 309 309 310 310 310 311 311 311 311 311 312 312 311 311 310 311 310 309 310 310 309 310 310 311 311 311 312 313 314 315 314 315 316 316 315 315 315 314 314 314 314 315 314 314 313 312 312 311 311 310 309 309 309
316 316 315 315 315 316 315 315 315 315 314 313 313 313 313 312 312 312 312 311 311 311 310 309 309 309 310 309 309 308 307 307 307 308 309 310 310 310 310 311 311 311 311 311 310 310 310 310 310 309 310 310 309 309 309 310 311 311 312 313 314 314 314 314 315 314 315 315 315 314 314 314 314 314 314 314 313 313 313 312 311 310 310 310 309
315 315 315 315 315 315 315 315 315 314 314 313 313 313 313 313 312 311 312 311 311 311 310 309 309 309 309 309 308 307 305 304 305 306 308 309 309 310 310 310 310 311 311 310 310 310 310 310 309 308 309 310 309 309 309 310 310 310 311 313 314 314 314 314 314 314 314 315 315 314 314 314 314 314 314 314 314 314 313 313 312 312 311 311 310
315 315 314 315 315 315 315 315 314 314 314 313 313 312 312 312 313 311 311 311 311 310 310 310 309 309 309 308 307 305 303 302 304 306 307 308 308 309 309 309 310 310 310 310 309 310 310 310 309 307 308 309 309 308 308 309 310 310 310 312 314 314 314 314 314 314 314 315 314 314 314 314 314 314 314 315 315 314 314 313 313 313 312 311 311
315 314 314 314 314 315 316 315 314 314 313 313 313 312 311 311 312 311 311 311 311 310 310 310 310 309 308 308 306 304 302 301 303 305 306 307 307 308 309 309 309 309 309 309 309 309 310 310 308 306 306 308 308 307 308 308 309 309 309 311 313 313 314 314 313 313 314 314 314 314 314 314 314 314 314 314 314 314 314 314 314 313 313 312 311
315 315 315 314 314 315 315 314 314 313 312 312 312 311 311 311 311 311 311 311 310 310 310 309 310 309 308 307 305 303 301 300 301 303 305 306 306 307 308 308 309 308 309 309 308 309 309 309 308 306 305 306 307 306 307 308 308 309 308 309 311 312 313 313 313 313 313 312 313 313 313 313 313 314 314 314 314 314 314 314 314 314 313 312 311
316 316 315 314 314 314 313 313 313 312 312 312 311 311 311 311 311 311 311 311 310 310 310 309 309 309 309 307 305 302 300 299 300 301 304 305 306 306 307 308 308 308 308 308 308 308 308 308 308 307 305 304 304 306 307 308 308 308 308 308 309 311 312 312 312 312 312 312 311 312 312 312 312 312 312 313 314 314 313 313 314 314 313 313 311
316 316 315 314 313 313 313 313 312 311 312 312 310 310 310 310 311 311 311 311 310 310 310 309 309 309 308 307 305 302 299 298 299 300 303 305 305 306 307 307 308 307 307 307 307 307 307 307 307 307 306 303 302 305 307 308 308 309 308 308 309 309 310 311 312 311 311 311 310 310 310 310 310 310 310 311 312 313 313 313 314 313 313 313 311
316 316 315 314 312 311 311 311 312 312 311 310 310 310 310 310 311 311 311 311 310 310 310 309 309 309 308 307 304 301 298 297 298 300 302 304 304 305 306 307 307 307 307 307 307 307 307 307 306 306 306 303 301 304 307 308 309 309 309 309 309 308 309 310 310 311 311 310 309 309 309 309 309 309 309 310 311 312 313 313 313 314 313 313 312
315 315 315 314 312 311 310 311 311 311 310 310 309 309 310 310 311 311 311 311 310 310 309 309 309 308 308 306 303 300 297 295 296 298 300 303 304 305 306 306 307 306 306 305 305 305 306 306 306 306 305 302 300 303 306 308 309 310 309 310 310 308 308 309 309 309 310 310 309 309 309 309 308 308 309 309 310 312 313 313 313 314 313 313 313
315 315 315 313 312 311 310 311 311 310 309 309 309 309 310 311 311 310 310 310 310 309 309 308 308 308 308 306 302 300 297 295 295 297 299 302 303 304 305 306 306 306 305 303 302 302 303 305 305 305 303 301 300 302 305 307 309 310 310 310 310 308 308 308 309 309 309 309 309 309 308 308 308 308 308 309 310 312 313 313 313 313 313 313 312
315 315 314 313 313 311 310 310 310 310 309 308 308 309 310 310 310 310 310 309 309 309 308 308 307 307 308 306 303 302 299 294 293 295 298 301 302 303 305 306 306 305 305 303 301 300 300 302 303 303 301 299 299 301 304 307 309 310 310 310 309 308 308 308 308 308 308 308 309 308 308 307 307 307 307 309 310 312 313 313 313 313 313 312 312
314 315 314 313 313 312 311 310 310 309 308 308 309 309 309 309 309 310 310 309 309 309 308 308 307 307 307 307 304 303 300 295 292 294 296 299 302 303 304 305 305 305 305 304 303 302 300 299 301 300 299 299 299 301 304 307 309 309 310 309 309 309 308 308 308 307 307 308 308 308 307 307 307 307 307 309 311 312 313 313 313 313 312 312 311
314 314 314 313 313 312 311 310 310 309 308 308 309 309 308 309 309 309 309 308 308 308 307 307 307 306 306 307 305 304 301 296 291 291 294 297 300 302 303 304 303 304 304 304 304 303 301 298 299 299 299 299 299 300 303 306 307 308 309 309 309 309 309 308 308 308 307 307 307 307 308 307 307 307 306 308 309 311 311 312 312 312 312 312 311
314 314 314 314 313 312 311 310 309 308 308 308 309 308 308 309 309 308 308 308 307 307 306 306 306 305 304 304 304 304 303 298 292 290 292 295 298 301 302 303 301 302 304 305 304 303 301 298 298 299 298 298 299 300 302 304 305 306 307 308 308 308 307 308 308 308 308 308 307 307 308 308 307 307 306 306 307 308 310 310 310 312 312 312 311
314 314 314 314 313 312 311 310 309 308 308 308 308 308 308 309 308 308 308 307 307 306 306 305 305 304 302 302 301 304 304 299 292 290 290 292 296 299 302 303 303 302 303 304 304 303 301 298 297 298 298 298 298 300 301 303 304 304 305 307 307 307 306 307 308 308 307 308 309 308 308 308 308 307 306 306 305 306 308 307 309 311 312 311 311
314 314 314 314 313 312 311 310 309 308 308 308 308 308 308 308 308 308 308 307 306 305 305 305 304 304 303 302 301 302 304 300 292 289 290 291 293 297 300 302 303 303 302 303 304 303 301 298 296 297 298 298 298 299 300 302 302 302 303 304 304 305 305 306 307 307 307 307 308 309 308 308 308 306 306 306 305 305 306 306 308 310 311 310 310
314 314 314 314 312 312 311 310 309 308 308 308 307 307 307 307 307 307 307 306 305 305 305 305 304 303 304 303 299 297 299 298 292 289 290 290 290 294 297 299 301 302 302 301 301 301 301 298 296 296 298 298 298 299 299 300 301 301 302 302 302 304 305 306 307 307 306 306 307 307 307 308 307 306 305 306 306 305 305 306 306 308 309 309 308
314 314 314 313 312 312 311 310 308 308 308 308 307 306 306 306 306 306 306 305 305 305 305 304 304 303 303 303 300 295 294 293 290 289 290 290 289 291 295 298 300 301 301 300 299 300 299 297 295 296 298 298 298 298 299 300 301 301 302 302 303 305 306 306 307 306 306 306 306 306 306 307 307 306 305 306 306 306 305 305 305 306 307 307 307
315 314 314 313 313 312 311 310 308 308 308 307 306 305 306 305 305 306 306 306 306 305 305 304 304 304 303 303 302 299 294 290 289 289 289 289 289 290 293 296 298 299 299 299 298 297 296 295 295 296 298 298 297 298 298 299 301 302 302 303 304 305 306 306 306 306 305 306 306 306 306 306 307 306 306 306 306 306 305 305 304 304 305 306 306
316 314 314 314 312 311 311 310 309 309 309 307 306 305 305 305 305 305 305 306 306 305 305 305 305 303 303 302 302 302 298 292 289 290 290 289 289 289 291 292 294 296 296 295 295 294 294 295 295 296 297 298 298 297 297 298 300 301 302 303 303 305 306 306 306 306 305 305 305 305 306 306 306 306 306 306 306 306 306 305 304 304 305 305 305
316 315 314 313 312 311 311 310 309 309 309 307 306 305 305 304 304 304 304 305 305 304 305 305 305 304 304 303 302 302 301 296 291 292 294 293 290 290 291 293 293 293 293 293 294 295 295 295 296 296 296 297 298 298 297 297 298 300 302 302 303 304 305 305 306 305 305 305 305 305 305 305 306 306 306 305 306 306 306 306 305 305 304 304 304
317 316 314 313 313 312 311 309 309 310 309 307 306 306 305 304 303 304 304 304 304 304 304 305 305 304 303 303 302 302 302 300 296 296 297 298 295 293 294 295 294 294 294 296 297 297 297 296 296 296 296 297 297 298 297 296 297 299 301 302 302 302 303 304 304 304 304 305 305 305 305 305 306 306 305 305 305 306 306 306 306 305 305 304 304
318 317 315 314 313 312 311 310 310 311 309 307 307 306 305 304 303 303 303 303 304 304 304 304 305 305 303 303 302 301 301 301 301 300 299 299 299 297 296 296 295 296 297 298 298 298 298 298 297 297 297 298 298 298 297 297 296 297 299 301 302 302 302 303 303 303 303 304 304 305 305 305 306 306 305 305 305 305 305 305 306 305 305 305 305
319 317 315 314 313 312 312 310 310 311 309 308 307 306 305 304 303 303 303 303 304 304 304 304 304 304 303 302 301 301 300 301 301 300 299 298 298 298 298 298 296 296 298 298 298 298 299 298 298 297 297 299 299 298 297 297 296 296 297 299 300 301 302 302 302 302 303 303 303 304 304 304 305 306 305 305 305 305 304 304 305 305 305 305 305
320 318 316 314 313 313 313 311 310 311 310 308 307 307 305 304 304 303 303 303 304 304 304 303 303 303 303 302 301 301 301 301 300 297 296 298 298 296 297 297 296 296 296 296 296 297 298 298 298 297 297 297 298 297 297 297 296 296 296 296 298 299 300 301 301 301 302 302 303 303 304 304 305 306 305 305 305 305 304 304 304 304 304 304 304
321 318 316 315 313 313 313 311 310 311 310 308 308 307 306 305 304 303 303 303 304 304 303 303 303 303 302 302 301 301 300 298 296 293 293 295 295 293 293 294 295 295 295 295 296 298 298 297 297 296 296 296 296 296 296 296 296 296 296 296 296 297 298 299 299 300 301 302 302 303 303 303 304 305 305 305 304 304 304 304 303 303 302 302 302
321 318 317 315 314 313 313 311 311 311 310 308 308 307 305 305 305 304 303 303 303 303 303 303 303 303 302 302 302 302 299 295 292 291 291 291 291 290 292 294 295 295 295 295 297 298 297 296 296 296 296 296 296 296 296 296 295 295 295 295 295 296 297 297 297 298 300 301 302 302 303 303 304 304 305 305 304 304 303 303 303 302 302 301 301
321 318 317 316 314 313 313 312 311 311 309 308 307 305 303 303 304 303 302 302 302 302 303 302 303 303 302 301 301 299 295 293 291 291 291 290 290 291 293 294 295 295 295 296 297 297 296 296 296 296 296 295 295 295 295 295 295 295 295 295 295 295 296 296 296 297 299 300 301 301 302 303 303 304 304 305 305 304 303 303 302 302 301 301 301
321 319 318 317 314 313 313 312 311 311 310 308 306 304 302 300 298 298 299 300 301 301 301 301 302 302 301 301 300 296 292 291 291 290 290 290 291 292 294 295 295 295 296 297 297 296 296 296 295 295 295 295 295 295 295 294 294 294 294 294 294 294 295 296 296 296 298 300 301 301 302 303 303 303 303 304 305 305 304 303 303 302 302 301 300
322 319 319 318 315 313 313 312 310 310 310 308 306 304 301 299 296 294 295 297 298 300 299 299 300 300 300 300 299 295 292 291 291 290 290 291 292 293 294 295 295 296 297 298 296 295 295 295 295 295 295 295 295 295 294 294 294 294 293 293 294 294 294 295 296 296 297 299 300 300 301 302 302 303 303 303 303 304 304 304 304 303 302 301 301
323 320 319 318 315 313 313 311 309 310 310 309 307 304 302 300 297 294 293 293 294 296 297 297 298 298 297 298 297 293 291 291 290 290 291 292 293 294 294 294 295 295 296 296 296 295 295 295 295 295 295 295 295 295 294 294 294 293 293 293 293 293 294 295 296 296 297 298 299 300 300 301 302 303 303 302 302 302 303 304 304 304 303 301 301
323 321 320 319 316 314 313 311 309 309 310 309 308 306 303 301 298 296 294 294 293 293 294 294 295 295 295 295 294 291 291 291 290 290 292 293 294 294 295 296 297 296 295 295 295 295 295 295 295 295 295 295 294 294 294 294 293 293 293 292 293 293 293 294 295 296 297 298 298 299 300 301 301 302 302 303 302 302 303 303 304 303 303 302 301
323 322 321 319 316 314 313 311 309 309 309 309 308 307 305 302 299 297 296 295 294 293 293 293 293 293 292 292 291 290 290 290 290 291 293 294 294 295 296 297 298 296 295 295 295 295 295 295 294 294 295 295 294 294 294 294 293 293 293 292 292 293 293 293 294 296 297 297 298 299 299 300 301 301 302 302 302 302 303 302 302 302 302 301 301
323 322 321 320 316 314 313 312 310 309 309 309 308 307 305 303 300 298 297 296 294 293 293 292 291 291 290 290 289 289 290 290 290 292 293 294 295 295 296 297 297 296 295 295 295 295 295 294 294 294 294 294 294 294 294 293 293 293 293 292 292 293 293 292 293 294 296 297 297 298 298 299 300 301 301 301 302 302 302 302 301 300 300 300 300
323 322 321 320 317 314 313 312 310 309 308 309 308 307 306 304 301 299 298 297 295 294 294 292 291 290 290 289 288 289 289 289 290 292 294 294 295 295 296 296 296 296 295 295 295 295 294 294 294 294 294 294 294 294 293 293 293 292 292 292 292 292 292 292 292 293 295 296 296 296 297 298 299 300 300 301 301 301 302 302 301 300 300 299 299
323 322 321 321 318 315 313 313 311 309 308 309 308 307 306 304 302 299 299 298 296 295 295 293 291 291 290 289 288 289 289 289 290 292 294 294 295 296 297 296 295 295 295 295 295 295 294 294 294 294 293 293 293 293 293 293 293 292 292 291 292 292 292 291 291 292 293 294 295 295 296 297 298 298 299 300 301 300 301 302 302 301 300 299 298
323 322 321 320 318 315 313 313 311 309 308 308 308 307 306 305 302 300 299 298 297 296 295 293 292 292 291 289 288 289 289 289 291 292 293 295 296 297 297 296 296 295 295 295 295 295 294 294 294 293 293 293 293 293 292 292 292 292 292 291 291 291 291 291 291 291 292 293 294 294 295 296 296 297 299 300 300 300 301 301 301 300 299 299 298
323 322 321 320 318 315 314 313 312 310 308 308 307 306 306 305 302 300 299 298 297 297 296 294 293 293 292 290 289 290 289 290 292 293 294 296 297 297 296 296 296 295 295 295 295 295 294 294 294 293 293 293 293 293 293 292 291 291 291 291 291 291 291 291 291 290 291 292 293 294 295 295 296 297 298 299 300 300 300 301 301 300 300 299 298
323 322 321 320 318 315 314 313 312 310 308 307 307 306 306 305 302 301 299 298 298 297 296 295 294 294 293 290 290 290 291 292 293 294 296 297 297 297 296 296 295 295 295 295 295 294 294 294 293 293 293 293 292 293 293 292 291 291 291 291 291 291 290 291 291 290 290 292 293 294 295 295 296 297 298 299 299 299 299 300 301 300 300 299 299
323 322 321 319 316 314 314 313 312 310 309 308 307 306 305 304 303 301 300 298 298 298 297 295 295 295 293 291 290 291 292 293 295 296 297 297 297 296 296 295 295 295 295 295 294 294 294 293 293 292 292 292 292 292 292 292 292 291 290 290 291 291 290 290 291 291 291 291 292 294 295 295 296 297 298 298 298 298 298 299 299 299 299 299 299
322 322 320 317 315 314 313 313 312 310 309 307 306 305 305 304 303 302 300 298 298 298 298 296 296 296 294 291 290 291 294 296 297 297 297 297 297 296 296 295 295 295 295 294 294 294 293 292 292 292 291 291 291 291 291 291 291 291 291 290 291 291 290 290 290 291 291 291 292 293 294 295 295 296 297 297 298 298 297 298 298 298 298 298 298
321 322 319 315 314 314 313 312 311 310 308 306 305 305 304 304 304 303 300 298 298 299 298 297 297 296 294 292 290 291 295 297 298 297 297 297 296 296 296 295 295 294 294 294 294 293 293 292 292 291 291 291 291 290 290 290 290 290 290 290 290 290 290 291 291 291 291 292 292 293 294 294 295 295 296 297 297 297 297 297 297 297 297 297 298
319 321 319 315 313 313 313 312 311 309 307 306 305 304 303 304 304 302 300 299 299 299 298 298 297 296 294 292 291 291 295 299 299 297 297 297 296 296 295 295 294 294 294 294 293 293 293 293 292 292 292 291 291 291 290 290 289 289 288 288 289 290 290 291 291 291 291 292 292 293 293 294 294 295 295 296 296 296 297 297 297 297 297 297 297
316 319 319 316 313 313 313 311 310 309 307 306 305 304 303 303 303 301 299 299 299 298 298 297 296 295 294 293 291 292 296 299 298 297 297 297 296 296 295 294 294 294 294 294 293 293 293 293 293 292 292 292 291 290 290 289 288 287 286 286 288 289 290 290 290 291 291 292 293 293 293 294 294 295 295 295 295 295 295 295 296 296 296 297 297
314 316 318 316 313 312 312 312 310 309 307 306 305 304 304 303 302 300 299 298 298 298 298 298 297 296 294 293 292 294 298 299 298 297 297 296 296 295 294 294 294 294 294 294 293 293 293 293 292 292 292 291 291 290 289 289 288 286 285 286 288 289 289 289 290 290 291 292 293 293 293 293 294 294 295 295 295 295 295 295 295 295 296 296 296
311 313 316 316 313 311 312 311 310 309 308 306 305 304 303 302 301 300 299 298 298 298 298 298 297 296 295 293 293 296 298 298 297 297 297 296 295 295 294 294 294 294 294 294 293 293 293 292 292 292 292 291 290 289 289 288 286 285 284 286 288 288 289 289 289 290 291 292 293 293 293 293 293 294 294 294 294 294 294 294 295 295 295 295 295
307 310 313 315 315 312 311 311 310 309 308 306 305 303 302 302 301 300 299 298 298 299 299 298 297 296 294 294 294 297 298 298 297 297 297 296 295 294 294 294 294 294 293 293 293 293 292 292 292 292 291 290 290 289 288 287 285 284 284 286 287 288 288 289 289 289 290 291 291 292 292 292 293 293 293 293 294 294 294 294 294 294 294 294 294
304 306 309 314 315 313 310 310 309 308 307 306 304 303 302 302 301 299 298 298 298 299 298 297 296 295 294 294 295 297 298 298 297 297 296 295 295 294 293 293 293 293 293 293 293 292 292 292 292 291 291 290 290 289 287 285 285 284 284 285 287 288 288 288 289 289 289 289 290 290 290 290 291 291 292 292 293 293 293 293 293 293 293 293 293
Wind_Speed
7 7 7 6 6 5 4 4 4 4 4 4 4 4 4 4 4 5 6 6 7 8 9 9 10 11 12 12 12 13 15 15 15 14 14 16 17 16 17 18 18 17 17 18 17 19 21 21 23 24 24 24 25 24 26 27 26 24 24 23 18 16 16 11 4 3 7 9 9 10 12 14 15 16 14 14 16 18 19 23 27 30 32 32 34
8 8 7 6 6 6 5 4 4 4 3 3 4 4 4 3 4 5 5 6 7 8 9 10 10 11 12 14 14 14 15 15 15 15 14 15 16 16 16 17 17 16 17 19 18 18 20 20 22 24 23 23 24 24 25 26 25 24 25 24 19 15 15 13 8 5 5 8 10 12 13 13 13 15 15 14 14 15 17 18 21 25 28 30 31
10 9 8 7 7 6 5 4 4 3 3 3 3 3 3 3 4 5 5 6 7 7 8 10 11 10 11 13 14 15 15 15 17 18 18 16 15 16 16 17 18 18 17 18 18 18 20 20 21 22 22 23 24 24 25 25 25 24 24 24 19 16 16 14 11 9 7 8 12 13 13 13 13 13 12 12 12 13 16 17 17 19 23 27 29
10 9 8 8 7 6 6 5 4 3 3 3 3 3 3 3 4 5 5 6 7 7 8 9 10 11 11 12 14 15 15 15 16 18 19 18 16 16 16 16 17 16 16 16 17 18 18 19 20 20 21 22 23 24 25 25 24 24 23 23 21 17 16 14 14 13 9 7 11 13 13 14 15 14 11 10 11 12 14 15 15 16 20 23 26
10 10 9 8 7 6 6 5 5 4 3 3 3 2 2 2 3 4 5 6 6 7 8 9 10 11 11 12 13 14 15 15 15 15 17 18 17 16 16 16 16 15 16 16 15 16 17 17 18 19 20 21 22 23 25 24 24 25 24 23 22 19 16 14 11 11 10 9 11 13 15 15 15 16 14 11 11 12 12 13 14 15 16 18 21
11 10 9 8 8 7 6 6 5 5 3 3 3 2 2 2 3 4 4 5 6 7 8 9 9 10 10 11 12 13 14 15 15 15 15 16 16 16 16 16 17 16 16 16 16 16 16 16 17 19 19 19 21 22 24 24 24 26 26 23 22 20 19 17 12 10 12 13 13 13 14 15 15 16 16 13 12 13 12 12 13 13 13 15 17
12 11 9 8 8 7 6 6 6 5 4 3 3 2 2 2 3 4 4 5 6 7 8 8 9 9 10 10 11 12 13 14 14 14 15 16 16 17 16 15 16 16 15 15 16 16 16 14 16 19 18 18 21 22 24 24 23 24 26 23 21 21 20 21 19 15 15 15 14 14 15 15 15 15 16 16 15 14 12 10 11 12 12 14 15
12 11 10 9 8 7 7 6 6 5 5 4 3 3 3 2 3 3 4 4 6 7 7 8 8 9 9 10 11 11 13 14 14 13 13 14 16 17 16 14 14 15 15 15 15 15 14 12 14 19 20 18 20 21 22 24 22 21 25 24 21 20 20 21 21 18 16 16 16 16 16 17 18 18 18 19 18 16 12 8 8 10 12 13 14
13 12 11 10 9 8 7 7 6 6 5 5 4 3 3 3 3 3 4 5 5 6 6 7 8 8 9 9 9 11 13 14 13 12 12 12 14 16 16 14 14 15 15 16 15 15 15 13 13 18 21 20 19 18 18 21 20 18 22 26 23 20 19 19 20 19 17 17 18 17 16 17 18 19 19 18 18 17 12 8 8 10 15 16 15
14 13 12 11 10 9 8 7 7 6 5 5 4 4 4 3 3 4 4 5 5 5 6 6 7 7 8 9 8 10 13 13 11 11 10 11 13 15 16 14 14 15 15 16 16 16 16 15 14 17 21 21 20 18 15 18 19 15 17 23 25 23 20 19 18 19 17 17 18 17 14 14 17 17 17 17 17 18 15 10 8 9 13 15 14
14 13 12 12 11 10 9 8 8 7 6 6 5 5 4 4 4 4 5 5 4 5 6 6 6 7 7 8 8 10 12 12 10 9 8 8 10 13 15 13 13 14 15 16 16 16 17 16 15 17 20 22 21 19 16 17 17 13 12 18 23 24 23 21 19 19 18 16 16 16 13 13 16 16 16 16 18 19 16 10 8 7 9 10 9
14 13 13 13 12 11 10 10 9 8 7 6 6 5 5 4 4 5 5 5 5 5 5 6 6 6 6 7 7 9 12 12 11 9 7 7 8 11 12 11 11 13 14 14 15 15 16 17 17 16 17 21 21 18 17 18 15 11 10 13 17 20 22 21 20 19 17 15 14 14 13 13 14 16 16 16 17 18 14 9 9 10 12 11 10
14 14 13 13 13 12 11 11 10 9 8 7 6 5 5 5 5 5 5 5 5 5 5 5 5 5 6 5 5 8 13 13 11 8 6 6 7 8 9 9 10 10 11 13 15 16 16 16 16 15 16 20 21 18 18 19 16 12 9 8 12 17 19 19 18 17 16 14 13 14 14 13 14 17 16 14 16 16 12 10 10 12 14 13 13
15 14 14 13 13 13 12 12 11 10 8 8 7 6 5 5 5 5 5 6 5 5 5 5 5 5 5 5 3 7 13 14 12 9 5 5 7 8 8 7 8 8 8 10 14 18 18 15 14 15 16 19 20 18 18 19 17 15 13 8 10 15 18 17 16 15 13 13 12 13 15 16 17 20 18 14 15 14 12 11 11 13 16 16 15
16 15 14 14 14 13 12 12 12 11 10 9 8 7 6 5 5 5 5 5 5 5 5 5 5 4 5 4 3 7 12 14 13 9 6 5 7 10 9 6 7 7 6 7 11 16 18 16 14 14 16 19 19 17 17 18 18 16 15 12 11 14 16 17 17 14 11 10 10 12 17 20 22 23 20 15 15 13 11 12 11 12 16 17 17
16 16 15 15 14 13 13 13 13 12 12 10 9 8 7 6 5 5 5 5 5 5 5 4 4 4 4 5 4 6 10 14 14 10 7 5 6 9 11 8 6 7 5 5 8 13 16 16 15 14 17 19 18 16 14 15 17 17 16 14 13 14 15 16 16 16 13 9 6 9 17 21 23 25 22 17 16 13 12 18 16 12 15 16 14
17 17 17 16 16 15 14 14 14 13 13 12 10 10 8 7 6 6 5 5 5 5 5 4 4 5 4 4 4 5 9 13 14 12 8 6 6 10 12 9 8 9 5 3 6 11 15 16 15 15 17 18 18 16 13 13 15 17 16 14 13 14 16 15 14 16 16 11 5 5 13 19 21 24 25 22 19 17 17 21 20 12 13 12 10
18 19 19 18 17 16 15 14 14 14 14 13 12 11 10 8 7 6 6 6 6 5 5 5 5 5 4 3 4 5 8 12 13 12 10 7 5 9 13 11 10 11 8 3 5 9 13 16 16 15 17 17 17 17 15 14 16 17 16 15 13 14 16 15 13 14 16 13 6 4 10 15 18 23 27 25 23 21 20 20 19 15 14 11 8
19 20 20 18 18 17 16 15 15 14 14 13 13 13 11 9 8 7 6 6 6 5 5 5 5 5 4 3 4 4 6 10 12 11 11 8 5 6 10 10 9 11 11 7 7 9 12 16 16 15 16 17 17 17 17 16 17 17 16 15 15 16 16 15 14 15 17 15 12 10 12 15 18 23 27 26 25 23 20 18 18 17 15 14 13
20 20 20 19 19 19 18 17 16 14 13 14 14 13 12 11 9 8 7 7 7 6 5 6 5 4 4 2 2 4 4 8 11 11 10 10 8 6 7 8 9 12 12 10 10 11 12 15 15 14 15 17 18 18 17 17 17 17 17 17 18 18 15 14 15 15 15 16 18 17 15 15 17 23 26 25 24 24 21 17 17 17 17 16 15
20 20 20 19 19 20 18 18 17 15 14 14 15 14 13 12 11 10 8 7 7 7 5 6 5 4 4 2 1 4 5 6 9 10 10 10 9 7 7 9 11 13 12 11 12 12 11 12 13 13 15 18 19 19 18 17 17 16 16 17 18 17 14 14 15 14 14 16 19 18 16 15 15 18 22 24 23 23 22 19 16 16 17 16 14
20 21 21 20 20 20 19 18 18 16 15 16 16 14 13 13 13 11 9 7 8 8 6 6 6 5 4 3 2 3 7 8 8 9 10 11 10 10 8 8 9 11 12 11 11 11 10 11 13 13 14 16 18 19 19 18 18 17 16 16 18 17 14 14 15 15 15 17 17 16 15 15 14 15 19 22 21 20 21 22 20 18 18 17 16
20 21 21 21 22 22 22 22 20 17 17 18 17 15 14 14 13 12 10 9 9 9 8 7 7 6 6 6 4 1 4 7 9 9 11 12 12 12 12 10 9 10 11 11 11 11 12 13 13 14 14 14 14 17 19 19 17 18 18 17 17 17 16 15 15 16 16 16 16 15 14 13 13 15 18 19 18 17 18 21 23 23 21 20 20
21 21 22 22 22 24 25 24 21 18 18 19 17 16 15 15 14 13 11 11 11 10 9 9 8 8 8 7 7 5 1 4 8 10 10 10 11 13 13 13 12 12 12 12 12 12 13 14 13 13 14 14 13 13 16 18 17 16 17 17 16 17 18 16 15 15 16 17 17 16 15 13 13 15 17 18 16 14 14 16 20 22 23 24 25
22 22 22 23 22 24 26 25 21 19 20 20 18 17 16 16 15 14 13 13 13 12 11 11 11 10 10 8 8 8 5 2 3 6 7 8 8 10 12 13 11 10 9 10 10 10 10 11 13 12 11 12 12 10 12 16 17 16 16 16 16 17 17 16 15 16 17 18 18 17 18 16 12 15 17 19 17 13 12 13 15 17 19 20 24
22 22 22 23 22 23 26 27 23 20 21 20 18 18 17 16 16 15 15 15 14 14 13 13 12 11 11 9 9 8 6 5 2 2 5 6 6 5 8 11 11 8 7 8 9 9 9 9 11 12 11 10 10 10 10 12 15 17 16 16 16 16 16 15 15 16 16 16 16 16 17 16 11 13 15 20 19 15 13 13 14 15 16 16 19
22 22 22 23 23 23 27 28 24 21 22 20 17 17 18 17 16 16 16 16 15 15 15 14 13 12 11 10 10 9 7 6 5 4 2 2 3 4 4 7 9 8 6 5 7 8 9 8 8 11 12 11 10 12 12 11 14 16 16 16 16 16 15 14 14 15 14 14 14 14 15 15 12 13 16 18 16 15 15 15 15 15 14 14 16
22 22 21 22 23 23 26 28 25 24 25 22 18 18 18 17 17 17 17 17 16 16 15 14 13 13 12 12 11 10 9 8 6 4 3 4 3 2 2 3 5 6 4 4 6 7 7 7 8 11 13 13 13 14 14 13 13 16 16 16 16 16 15 14 14 15 15 13 14 15 17 17 14 14 18 18 14 13 14 16 17 16 15 14 15
22 22 21 21 23 23 24 27 27 26 26 23 19 19 20 19 18 18 17 16 17 17 16 14 13 14 14 13 12 12 11 9 6 3 4 5 3 2 4 6 7 6 4 6 8 8 8 9 10 12 13 14 14 14 15 14 14 15 16 16 16 16 16 15 15 16 15 14 16 17 18 19 17 13 17 19 17 14 14 16 17 17 17 17 17
22 23 21 21 24 24 23 26 27 27 28 25 19 19 20 18 18 19 17 15 16 16 15 14 14 15 16 14 10 11 12 10 7 7 7 6 5 6 8 9 8 6 6 7 7 7 8 10 12 12 13 14 14 14 14 15 15 15 15 16 16 16 16 16 15 15 14 14 16 17 17 20 20 14 14 17 18 17 17 18 19 19 19 19 18
21 23 22 22 26 26 24 26 27 27 28 26 21 21 20 15 15 18 17 15 15 14 14 15 14 14 16 15 12 11 11 11 10 9 9 8 8 9 10 10 8 7 8 9 9 9 10 11 11 12 13 14 14 14 14 14 15 15 15 15 16 16 16 15 15 14 14 14 15 17 17 19 21 18 13 14 16 18 18 18 19 22 23 22 20
21 23 22 23 27 28 25 27 28 26 26 25 23 24 23 18 17 17 16 15 15 14 13 15 14 12 13 14 13 12 13 12 12 12 11 11 11 11 11 10 8 6 5 6 8 10 11 11 11 12 12 13 14 14 14 14 14 14 14 14 15 15 15 15 14 13 14 14 14 16 18 18 19 19 17 13 13 14 16 16 19 22 24 23 22
22 23 22 22 27 29 26 28 31 28 24 25 25 25 25 22 21 20 16 14 15 14 12 13 14 12 12 12 12 13 14 14 14 14 13 13 12 12 10 9 8 8 7 6 8 10 10 10 11 11 12 12 13 13 13 14 14 14 14 14 15 15 14 14 14 13 13 13 14 15 18 19 17 16 18 18 14 12 12 14 15 18 20 20 19
24 24 24 23 26 28 26 29 34 31 25 24 25 26 27 26 24 24 22 18 16 15 13 13 13 12 12 13 13 14 16 16 16 16 16 16 14 13 13 12 10 10 10 9 9 10 10 10 10 10 11 12 12 12 13 13 13 14 14 14 14 14 14 14 14 14 12 12 13 14 15 18 18 15 16 18 17 14 13 15 15 15 16 16 16
25 25 25 24 26 27 26 30 37 34 27 23 24 26 28 26 24 25 25 23 20 18 16 15 14 13 13 15 16 16 17 18 18 18 17 15 13 12 10 7 5 7 9 9 9 9 9 9 10 10 10 11 12 12 12 12 13 13 14 14 14 14 14 14 15 14 13 12 14 14 14 16 19 17 15 15 16 15 16 18 17 15 15 15 15
24 24 24 25 27 27 26 29 35 35 29 25 25 26 27 26 26 25 24 23 22 20 18 18 17 15 15 17 18 18 19 19 20 19 17 13 10 8 4 2 2 6 8 8 8 9 9 9 9 10 10 11 11 12 12 12 12 12 13 14 14 14 14 14 14 14 13 12 14 16 15 15 18 18 15 14 15 17 19 21 19 17 16 16 15
24 23 23 25 28 28 27 27 31 33 30 27 27 27 27 27 28 27 24 22 23 21 20 21 22 20 18 18 20 21 21 21 21 19 15 11 8 5 2 1 4 8 8 7 8 9 9 9 9 9 10 11 11 11 11 12 12 12 12 13 14 14 14 14 14 14 14 13 13 14 15 14 15 17 16 14 14 16 18 20 20 19 18 17 16
25 25 24 26 28 29 28 26 28 32 32 28 28 29 27 25 28 28 25 24 25 23 22 24 26 24 23 23 22 23 23 22 21 17 13 10 8 5 4 4 7 9 8 8 8 8 8 8 8 9 10 10 11 11 11 11 12 12 12 12 13 14 14 14 14 14 14 14 13 13 14 14 13 14 15 14 13 14 16 17 18 20 20 18 16
23 25 26 27 29 30 29 28 28 31 32 30 29 29 27 25 28 28 25 25 26 24 23 26 26 24 25 27 26 25 25 23 20 17 15 13 10 6 6 7 9 9 8 8 8 8 8 8 8 8 9 10 11 11 11 11 12 12 12 12 13 14 14 14 15 14 14 13 12 11 12 12 11 12 14 13 12 13 15 16 17 19 20 18 16
19 23 26 28 30 30 30 29 28 31 32 31 30 30 28 26 28 27 24 25 26 24 24 26 26 25 28 31 31 30 27 25 21 18 16 14 11 9 9 10 10 10 9 8 8 8 8 8 7 8 9 9 10 11 11 11 11 12 12 12 13 14 14 14 14 14 14 12 11 11 11 12 12 12 13 13 13 13 14 15 16 19 20 20 18
20 21 25 29 32 32 31 28 28 31 32 31 32 31 28 26 28 27 23 23 24 23 24 26 25 26 30 34 35 33 29 25 22 19 17 15 12 11 11 11 11 10 9 9 9 9 9 8 8 8 8 9 10 10 11 11 11 11 11 12 12 13 14 14 13 14 14 13 12 11 12 13 14 14 14 15 15 15 14 14 16 18 19 20 20
22 20 24 30 33 33 31 29 30 31 31 30 32 32 27 25 28 27 24 23 23 22 23 25 24 26 31 35 36 33 28 24 22 20 17 15 14 13 13 12 11 11 10 10 10 10 9 9 8 8 8 9 10 11 11 11 11 11 11 11 12 12 13 14 13 13 14 13 12 11 12 14 16 16 15 15 15 16 17 16 16 17 18 17 17
22 20 21 28 33 34 32 31 30 30 29 30 33 32 28 28 30 28 25 25 24 23 23 25 25 27 32 36 36 32 26 22 22 20 16 16 16 15 14 14 12 12 12 11 11 11 10 10 9 9 9 10 10 11 11 11 11 11 11 11 12 12 13 14 14 13 13 12 11 11 13 14 15 15 15 14 14 15 18 18 18 18 18 17 17
23 21 21 26 31 32 31 31 30 29 30 32 33 32 30 31 31 28 26 26 25 23 23 24 26 30 34 36 36 34 27 21 20 19 18 18 17 16 16 15 14 14 13 12 12 11 11 10 10 10 10 10 11 12 12 11 11 10 10 10 11 11 12 13 14 13 12 12 11 11 12 13 13 13 13 13 14 15 17 18 18 17 18 18 18
24 22 20 25 28 28 28 29 28 29 31 32 31 31 32 32 29 27 28 29 27 25 25 25 28 33 37 37 37 37 29 20 17 19 20 19 18 18 18 17 17 15 14 14 13 12 11 11 11 11 10 10 11 12 12 11 10 8 6 6 8 9 10 11 12 12 12 12 11 11 12 12 13 12 12 13 14 15 15 16 16 16 17 19 18
25 22 19 24 28 27 27 28 27 28 32 33 31 31 32 30 28 29 32 32 29 27 26 27 31 35 36 35 38 38 30 19 17 21 22 20 19 20 20 19 18 16 15 15 14 13 12 12 11 11 10 10 10 11 11 9 7 5 4 5 7 9 10 10 9 10 11 11 11 11 11 12 12 12 12 13 15 15 14 15 15 15 17 19 20
26 25 21 22 28 29 28 28 29 30 34 34 32 30 31 30 29 32 35 32 29 27 27 29 33 35 33 34 37 36 29 20 19 23 23 21 21 22 21 20 19 17 17 17 16 14 14 12 11 11 11 10 10 11 10 7 5 6 6 7 8 9 10 11 10 10 12 12 11 10 11 12 12 12 12 12 13 14 14 15 15 15 16 18 20
26 26 24 21 27 30 29 28 30 32 33 33 32 31 31 32 32 34 34 32 29 28 29 31 34 34 32 34 36 34 26 21 22 24 23 22 23 23 23 22 21 19 18 18 17 15 14 13 12 13 12 10 10 11 9 6 5 7 8 9 10 11 11 12 12 12 13 12 11 11 12 13 13 14 13 13 14 14 14 15 15 16 16 17 17
26 26 25 22 26 30 29 30 33 34 33 33 32 32 32 33 33 33 34 31 30 30 31 32 33 33 33 35 36 31 24 22 25 25 23 23 25 25 24 23 22 21 20 19 18 16 15 14 13 13 12 11 11 10 7 6 7 9 9 11 12 12 12 12 12 12 13 12 12 12 13 14 14 14 14 14 14 15 15 15 15 16 16 16 16
28 28 27 24 25 29 29 31 34 35 34 33 33 33 33 32 32 33 33 31 29 29 31 32 33 33 34 36 35 29 23 24 27 26 24 26 27 26 25 24 23 21 21 20 19 18 16 15 14 13 12 11 10 9 7 7 9 10 10 11 12 12 12 13 14 14 13 13 12 13 14 15 15 15 15 15 15 16 16 17 17 17 17 17 17
30 29 29 28 26 27 28 29 32 34 34 33 33 34 33 31 31 32 33 30 29 30 32 32 33 33 34 36 34 28 23 25 27 26 26 28 28 27 26 26 24 23 22 21 20 19 17 16 15 15 13 11 10 8 8 9 10 10 10 11 12 13 14 15 15 15 15 14 14 14 16 17 17 16 16 16 17 17 17 17 18 19 19 19 19
Wind_Direction
150 137 130 130 129 123 111 98 81 69 60 43 55 59 37 34 17 12 28 20 7 5 1 4 5 3 1 0 9 10 3 5 4 359 3 3 2 5 3 4 8 7 6 8 14 23 22 19 19 15 14 14 8 5 4 0 2 9 7 3 11 20 17 13 360 1 21 20 24 29 28 36 46 50 60 70 70 69 65 62 62 62 62 61 58
150 140 140 138 134 132 126 115 95 78 74 53 53 65 51 32 20 22 24 17 16 13 2 1 10 13 3 5 16 17 9 7 1 359 9 7 2 5 5 5 4 5 8 8 11 24 28 25 21 17 15 15 14 9 4 1 2 6 4 360 5 16 16 11 1 2 26 21 20 27 28 33 41 44 52 62 70 75 72 67 64 65 65 63 60
151 146 147 145 141 142 135 125 115 97 88 73 57 61 54 32 27 34 29 20 17 19 14 6 10 19 14 14 22 21 15 10 1 2 9 9 5 6 7 6 4 7 10 9 13 24 31 30 23 18 16 14 14 13 8 5 5 4 360 357 2 12 15 20 23 14 12 25 29 31 35 42 42 40 48 58 64 76 81 77 71 69 69 65 62
150 148 149 148 147 147 141 134 127 113 98 92 75 60 58 42 35 38 34 29 22 18 24 18 12 20 25 24 26 25 19 10 2 4 11 11 8 6 7 7 5 8 9 9 20 29 31 31 25 18 15 13 11 11 10 8 7 4 359 358 4 11 10 21 39 33 16 29 38 33 37 44 40 39 49 56 56 71 86 85 79 76 73 68 66
153 151 151 151 151 151 147 143 136 126 114 104 91 68 67 51 45 48 35 30 27 21 28 27 18 24 30 29 30 29 22 14 7 9 15 17 12 5 6 7 5 9 9 9 22 33 33 32 26 19 16 11 7 7 7 8 9 7 3 1 5 12 10 13 36 45 34 40 42 33 39 50 45 40 46 50 52 63 79 89 87 82 76 71 70
155 152 154 154 155 156 153 151 145 137 133 121 106 87 77 50 50 59 39 29 31 28 31 27 23 30 34 34 36 32 24 20 18 17 20 22 18 11 8 7 7 9 11 12 17 26 34 35 26 21 19 11 6 5 4 5 8 9 8 5 6 12 14 9 18 44 46 45 45 38 43 51 46 39 39 45 52 51 56 77 90 90 86 83 80
157 156 161 158 159 163 158 155 152 146 144 135 118 106 95 64 59 60 45 36 33 31 33 27 27 40 42 41 43 34 24 24 24 21 21 21 19 16 10 8 11 11 10 14 17 20 29 35 28 24 23 15 8 7 4 2 5 9 11 10 10 13 15 11 15 34 49 46 40 37 40 41 37 33 33 39 45 38 35 57 81 90 93 91 88
161 161 164 162 162 165 162 158 155 151 148 141 128 117 108 89 80 70 56 50 39 33 34 28 30 43 49 50 47 34 26 26 24 20 18 18 18 17 11 6 10 12 9 12 17 18 22 32 33 26 24 19 10 7 7 4 4 10 15 17 17 15 17 19 18 25 38 41 32 29 35 33 27 23 25 32 32 21 22 48 69 86 95 89 85
165 164 165 166 166 165 164 162 158 157 155 147 140 134 125 110 100 87 71 65 52 39 37 35 36 39 46 56 51 32 26 27 24 19 16 17 16 15 13 8 9 14 12 12 16 16 15 25 31 20 16 15 10 7 11 11 6 10 21 24 24 20 19 22 22 21 29 38 30 22 25 26 21 16 14 20 19 11 21 50 57 78 91 84 78
168 168 167 167 167 166 166 165 163 163 161 153 150 148 141 130 117 103 86 75 63 51 44 42 43 39 42 56 53 31 25 24 21 19 19 19 15 15 16 13 13 16 14 13 16 12 9 14 20 12 6 5 7 10 17 18 10 11 28 32 30 28 24 22 24 23 30 41 34 21 20 19 16 13 5 4 4 5 17 35 40 70 94 89 80
171 172 171 168 169 169 167 167 169 168 164 160 159 156 150 144 129 113 102 90 76 64 55 49 48 43 43 58 54 29 21 21 17 18 24 20 14 18 19 14 16 21 19 17 16 11 8 10 14 13 4 358 1 8 17 21 16 13 30 37 34 33 31 27 26 27 34 44 38 26 24 18 11 9 2 356 356 1 12 27 31 53 84 92 87
173 175 173 170 171 171 169 171 171 170 169 166 160 159 159 156 140 125 114 103 90 79 67 57 55 46 44 63 59 25 16 17 14 13 24 25 23 24 18 11 18 28 29 26 20 15 14 14 15 15 6 356 357 5 12 18 22 15 18 36 38 36 37 36 33 35 38 42 40 32 29 23 15 9 2 355 352 356 12 35 45 58 74 82 89
176 178 175 173 175 174 173 174 171 171 174 167 159 164 167 157 145 134 125 115 102 92 81 67 60 49 45 67 63 18 11 11 10 10 17 23 25 19 9 10 24 34 39 35 28 23 21 19 18 14 5 358 359 5 8 13 23 20 10 35 46 39 43 45 42 45 45 43 44 39 32 28 22 15 9 2 353 354 12 39 52 72 83 87 94
178 179 177 178 179 177 177 177 172 171 172 166 163 169 167 154 149 145 136 129 119 107 97 83 70 52 46 60 46 8 9 7 4 8 7 359 3 359 357 15 30 33 40 41 35 30 25 23 22 15 8 6 5 5 7 15 26 23 13 31 49 40 43 47 44 48 49 45 48 45 40 41 36 26 21 19 12 8 21 43 60 84 89 89 92
178 179 180 181 180 180 182 179 173 170 170 169 169 168 163 159 162 160 146 135 128 118 108 96 83 63 50 53 26 1 5 3 1 6 3 348 356 1 2 19 35 34 42 45 36 32 26 22 23 20 15 14 12 7 8 18 27 21 13 25 40 36 37 40 38 39 41 44 53 52 47 47 43 34 28 32 37 33 34 49 71 102 98 87 82
179 180 181 183 182 184 185 180 175 173 170 171 172 165 164 169 170 164 152 139 133 129 120 106 93 79 61 56 36 0 356 358 360 5 6 354 357 8 12 20 29 28 46 57 34 30 29 22 21 25 22 18 17 13 9 19 23 17 13 23 34 35 31 28 24 21 19 27 53 58 50 47 44 36 29 36 49 49 48 51 59 91 99 84 73
181 181 183 185 184 185 187 182 178 176 173 173 174 167 167 174 172 169 164 150 142 139 131 121 106 92 80 68 48 359 345 353 359 3 9 5 1 12 19 28 29 20 31 80 39 32 35 26 21 26 26 22 22 20 16 22 23 17 18 25 31 32 27 23 18 11 7 12 29 62 55 50 45 35 28 32 43 50 51 42 35 55 88 87 76
182 184 186 186 183 184 187 184 180 180 177 175 173 168 168 174 175 177 175 160 154 155 145 134 119 102 92 78 59 13 342 350 0 5 10 11 5 15 22 28 26 16 17 62 67 48 40 28 21 29 30 26 27 27 29 35 31 21 22 26 24 20 17 20 20 7 3 13 30 77 70 60 50 38 30 29 36 45 47 36 27 43 74 84 80
185 186 186 186 182 183 185 184 182 184 183 177 173 168 168 174 178 179 178 169 169 173 160 143 132 114 102 85 67 42 348 348 1 8 11 14 15 23 27 28 26 17 15 31 62 58 39 22 19 31 36 32 32 33 36 42 37 25 22 22 14 6 6 13 17 8 6 23 50 73 78 74 60 43 34 31 35 42 45 42 40 46 61 68 64
188 185 185 185 183 182 184 183 181 186 187 179 171 169 170 173 174 177 183 183 179 178 162 143 135 120 115 112 54 48 9 352 5 12 11 15 20 29 42 46 38 23 15 23 42 46 31 15 15 32 42 38 38 38 37 41 38 26 20 17 6 357 1 13 21 18 16 34 54 59 60 65 56 42 37 38 39 41 44 49 52 51 59 64 58
189 184 185 185 183 181 182 181 179 183 187 179 171 172 174 172 172 179 193 191 171 160 151 143 146 140 134 157 351 34 36 14 14 19 18 22 28 40 60 63 48 33 25 29 38 36 23 13 20 39 47 43 42 43 39 40 39 28 22 18 8 3 12 22 24 26 29 41 53 52 46 50 52 44 43 45 45 42 43 50 59 63 68 69 58
189 185 185 185 182 179 177 177 178 182 185 179 173 174 176 173 173 179 187 180 159 157 162 163 165 163 153 171 228 17 35 33 33 34 32 33 37 46 58 63 52 44 40 38 37 35 31 31 37 45 47 43 43 42 39 39 39 33 29 24 19 21 34 36 29 31 38 43 49 49 44 46 53 55 52 51 51 49 47 51 60 70 76 73 62
189 188 187 186 182 177 176 180 184 186 184 178 175 176 176 174 176 180 181 173 164 168 181 183 178 177 175 175 188 236 25 43 54 54 48 46 48 53 57 60 61 60 59 56 53 50 47 45 44 46 45 42 39 38 37 35 34 34 33 28 24 29 37 39 35 34 37 40 41 42 42 47 60 66 59 55 56 55 53 55 62 71 76 71 64
191 190 189 187 182 178 178 183 187 188 182 177 176 178 177 175 177 182 180 175 174 179 188 191 188 186 185 178 175 190 210 56 66 63 51 46 52 57 56 55 58 65 70 68 60 52 47 42 39 41 44 43 40 37 35 32 29 32 34 31 30 33 35 36 35 32 31 31 31 28 26 38 68 79 64 57 63 68 65 63 64 69 71 67 62
195 193 191 189 182 175 176 182 186 185 180 178 179 179 179 178 179 182 181 179 183 187 189 195 198 190 182 179 174 178 194 205 72 58 38 25 40 58 56 47 45 53 58 48 32 28 31 31 31 31 33 39 40 36 36 35 29 30 36 36 34 36 37 36 34 29 25 23 21 15 9 22 68 90 67 54 63 78 84 82 75 72 71 65 61
199 195 193 190 181 172 174 181 186 183 177 178 182 182 182 183 182 183 185 186 191 193 191 197 199 187 178 177 171 167 183 211 205 84 41 11 359 18 43 41 32 27 27 15 2 356 353 360 17 21 16 22 29 26 33 41 36 32 36 38 37 37 39 40 36 30 25 19 15 10 3 12 54 87 66 50 55 68 82 93 92 84 77 68 60
202 196 193 189 182 177 179 182 183 178 173 178 185 184 185 188 187 186 189 191 194 197 196 198 194 180 171 170 168 169 175 172 162 151 125 68 13 9 37 46 35 27 22 1 344 340 338 346 15 25 19 22 30 28 32 45 46 41 37 37 37 37 39 43 39 31 27 20 12 10 9 15 42 73 64 51 54 62 69 79 85 84 84 79 68
204 198 195 190 186 184 183 182 181 175 173 180 187 186 188 192 191 190 194 197 198 198 198 197 190 175 168 170 173 172 165 163 172 191 195 177 151 79 90 100 74 63 52 10 356 357 360 12 35 39 34 35 40 37 35 39 47 48 44 39 37 36 36 41 38 30 28 24 15 14 17 17 35 70 71 58 60 70 68 71 77 78 81 82 71
203 198 196 192 189 188 185 184 182 176 174 181 187 185 188 194 194 193 197 198 198 198 197 193 184 172 168 173 178 172 161 164 183 178 160 173 172 123 116 117 104 84 42 360 357 12 30 40 46 48 44 41 40 38 35 34 38 46 48 43 39 36 35 36 35 29 27 22 16 18 21 17 23 64 80 67 65 75 74 74 79 79 78 76 67
200 194 194 193 191 190 188 186 184 176 176 182 183 176 180 190 194 193 194 193 193 196 192 183 175 172 169 166 168 170 166 164 163 152 146 150 139 121 117 111 97 67 32 14 7 23 45 49 48 49 49 46 40 36 35 34 33 38 45 44 40 36 33 34 34 29 27 24 18 19 23 19 19 44 83 81 74 77 77 77 80 79 75 73 66
198 193 196 196 194 194 192 188 184 179 180 183 178 167 167 172 175 179 183 184 187 190 185 176 170 172 174 168 155 150 154 156 155 150 145 138 129 124 119 108 90 64 38 30 30 42 52 52 49 49 52 51 45 38 35 35 34 35 39 42 41 36 30 30 33 30 26 27 25 23 27 28 23 28 59 86 87 82 77 76 77 76 72 69 66
201 198 202 201 195 195 196 191 187 185 184 182 174 167 164 154 146 155 166 173 179 181 177 174 171 168 174 176 165 151 150 154 156 151 142 135 129 123 118 107 89 64 35 28 39 50 55 53 51 51 52 52 50 44 38 36 36 36 37 39 41 39 30 25 32 36 31 28 28 26 29 33 31 29 37 59 85 92 89 84 78 74 72 69 66
207 203 206 204 196 195 197 193 190 189 187 182 175 170 168 161 150 148 151 157 169 174 172 175 178 173 171 177 175 164 159 158 156 150 141 134 129 122 114 101 77 59 51 53 59 60 57 54 53 54 54 53 52 49 44 39 36 37 39 39 40 39 33 26 31 40 37 30 29 30 29 32 36 37 36 41 53 72 87 92 85 76 73 72 68
209 207 209 207 197 195 197 193 190 190 192 189 179 172 175 177 168 158 153 151 156 163 165 170 180 183 180 177 172 166 164 161 157 150 141 134 131 125 116 104 89 73 62 61 63 62 59 57 54 54 55 55 52 50 49 44 38 38 41 41 40 39 37 31 30 39 41 30 27 33 33 32 35 40 41 41 42 46 63 81 85 78 76 77 74
209 209 212 210 201 198 197 192 190 191 193 192 185 177 178 182 176 168 166 163 160 161 162 165 173 184 185 177 169 167 168 164 157 151 145 142 143 142 134 125 111 89 77 72 69 65 60 59 55 53 55 57 53 51 50 47 43 41 42 43 41 40 38 33 30 37 42 32 26 33 38 36 36 40 44 42 36 42 61 75 77 76 78 80 78
209 208 213 212 205 200 197 193 192 192 192 193 192 184 179 179 180 179 178 174 169 166 164 164 169 176 180 175 169 169 170 166 160 156 154 154 159 162 165 190 138 105 92 83 79 73 65 61 60 57 55 56 55 52 51 49 46 44 46 47 44 42 42 38 33 37 43 37 28 31 38 40 39 40 44 43 40 54 73 79 74 74 80 80 78
213 209 211 212 207 201 196 195 195 193 192 195 194 185 177 177 180 182 182 178 173 168 165 167 168 168 171 173 171 170 171 169 165 162 162 165 169 167 146 96 113 110 102 90 85 81 70 62 62 61 58 57 55 53 52 52 48 44 47 51 49 46 46 45 41 40 44 44 36 31 35 42 40 37 40 45 45 58 78 85 79 76 78 78 75
218 212 209 209 208 202 197 197 196 192 192 194 189 181 178 179 180 181 182 180 175 170 167 169 170 168 170 173 173 172 173 172 169 170 170 165 156 141 114 109 113 113 108 100 94 89 80 70 66 64 63 61 57 53 52 53 52 48 47 50 52 50 49 49 47 45 45 46 43 36 33 38 38 33 35 39 39 45 65 82 84 78 75 74 73
221 214 211 209 207 202 198 198 194 190 191 193 187 183 186 185 180 180 182 179 175 172 169 171 173 173 173 173 172 172 174 174 176 177 172 163 158 156 143 131 124 121 118 113 106 99 91 84 74 68 68 66 61 57 53 52 55 54 50 50 54 53 51 49 49 49 48 47 47 43 36 33 34 32 33 37 42 47 60 77 86 84 81 82 82
239 221 214 211 206 200 197 198 194 189 190 191 186 188 194 188 178 177 181 179 175 173 171 173 176 177 177 176 174 172 173 175 176 176 174 175 180 177 155 139 133 132 131 124 115 106 97 90 83 75 73 71 66 62 58 54 57 58 53 53 56 56 53 52 50 50 51 50 49 50 44 34 32 36 41 46 51 53 62 79 92 92 89 91 93
265 235 217 212 209 199 194 196 195 192 192 191 188 192 196 185 172 174 181 181 177 174 173 176 178 179 180 181 177 174 173 173 173 179 184 184 177 163 150 143 139 138 135 127 119 111 101 94 89 81 77 74 69 66 63 59 59 60 56 54 58 57 54 52 51 51 51 50 48 52 49 37 33 41 50 52 51 53 60 79 98 103 99 96 95
282 254 223 212 207 198 192 195 196 195 194 193 191 194 192 178 170 176 181 180 178 175 173 176 179 180 183 183 179 174 172 172 176 183 185 175 162 153 148 145 141 138 137 131 123 116 108 100 96 89 83 80 75 71 67 61 61 64 62 58 59 59 55 51 51 52 52 49 47 52 54 45 41 48 56 54 51 52 57 66 84 96 96 94 96
284 268 234 212 203 197 194 196 196 194 194 193 191 192 189 178 176 180 180 177 178 177 173 174 177 179 182 184 180 174 171 177 184 184 175 162 156 151 146 144 142 139 136 131 125 122 117 110 104 96 89 85 82 78 75 69 64 65 65 61 60 61 58 52 49 51 56 55 52 54 58 55 50 55 61 61 56 56 59 64 71 76 76 82 95
279 265 237 211 201 198 196 195 194 193 194 192 189 188 186 180 179 181 178 174 176 177 175 176 177 176 179 183 180 174 174 184 189 178 164 158 155 150 146 147 144 137 135 133 129 128 125 118 110 102 92 87 86 85 82 77 70 66 67 68 67 65 63 56 49 48 55 61 60 60 62 61 58 57 60 66 69 67 65 67 70 70 68 76 94
286 267 233 206 199 198 194 192 194 194 190 185 183 184 183 180 178 178 175 173 174 176 177 177 176 175 177 180 180 178 180 187 183 168 160 157 154 150 148 147 143 140 140 138 134 132 129 120 113 107 98 89 85 83 79 78 77 77 78 81 81 77 72 65 55 50 55 62 67 70 69 67 65 61 58 64 74 76 71 70 74 75 70 73 90
296 281 243 206 197 197 193 189 189 189 185 182 182 182 182 182 180 175 173 172 174 175 175 173 173 174 176 179 179 181 185 187 174 162 159 157 154 151 149 147 145 145 143 140 136 134 129 123 119 116 110 100 92 87 82 79 78 74 70 87 99 94 83 74 67 62 62 64 69 76 77 72 70 69 67 68 74 78 77 75 77 79 75 75 88
290 286 262 217 198 196 193 187 184 184 183 183 183 181 180 180 178 173 171 173 175 175 173 172 171 173 175 177 179 183 187 185 169 161 159 158 154 152 150 148 148 147 144 142 140 135 130 131 130 123 115 109 103 98 95 89 76 64 69 90 106 103 91 85 84 81 76 72 72 76 80 80 78 78 78 78 78 79 80 79 78 78 78 79 86
281 281 271 234 202 195 194 187 182 182 183 183 184 182 179 177 174 171 171 174 177 176 173 171 170 171 173 176 178 182 186 178 165 160 160 157 154 152 152 151 150 149 147 144 141 138 138 139 134 124 119 114 107 105 106 103 84 78 86 100 105 100 92 88 86 83 80 79 77 78 81 83 83 81 81 83 83 83 83 82 79 78 78 80 85
279 278 272 244 208 196 193 187 182 181 182 182 183 182 179 177 176 174 174 176 178 176 171 169 169 170 172 173 177 181 181 170 162 161 159 156 153 153 154 153 152 151 148 145 143 144 143 139 131 125 121 116 113 116 121 115 96 93 100 108 107 101 94 89 85 84 83 83 83 84 85 85 85 83 81 82 85 85 86 85 82 79 78 79 84
276 275 271 252 221 202 194 186 181 181 181 181 181 181 180 178 177 176 177 178 176 171 168 168 169 170 170 171 176 180 176 165 161 161 158 154 154 155 155 154 153 151 149 147 147 145 142 136 132 128 124 125 132 137 128 111 104 105 110 114 113 108 100 92 88 85 83 83 87 91 90 88 88 87 84 84 86 87 87 86 85 82 81 81 83
269 268 267 259 236 209 193 183 179 179 180 180 180 181 181 180 179 178 180 180 173 168 168 169 168 168 169 171 175 178 173 163 162 161 157 154 155 157 156 155 154 152 151 150 148 144 142 141 138 134 135 146 156 147 122 111 112 112 112 117 120 115 106 97 91 86 82 82 87 91 91 88 88 88 88 87 87 88 88 88 87 85 83 82 82